Weather History for Hammond, LA

Change the Weather History Date:

Monday, June 18, 2012

  Actual Average (KMSY) Record (KMSY)
Temperature  
Mean Temperature 78 °F -  
Max Temperature 87 °F 89 °F 96 °F (1990)
Min Temperature 69 °F 72 °F 63 °F (1969)
Cooling Degree Days 13    
Growing Degree Days 28 (Base 50)    
Moisture  
Dew Point 73 °F    
Average Humidity 80    
Maximum Humidity 100    
Minimum Humidity 58    
Precipitation  
Precipitation 0.15 in - - ()
Sea Level Pressure  
Sea Level Pressure 29.97 in    
Wind  
Wind Speed 8 mph (ESE)    
Max Wind Speed 20 mph    
Max Gust Speed 25 mph    
Averages and records for this station are not official NWS values.
T = Trace of Precipitation, MM = Missing Value Source: NWS Daily Summary

Daily Weather History Graph

Daily Weather History Graph

Search for Another Location

Airport:

Trip Planner

Search our weather history database for the weather conditions in past years. The results will help you decide how hot, cold, wet, or windy it might be!

Date:

Astronomy

Jun. 18, 2012 Rise Set
Actual Time 5:59 AM CDT 8:06 PM CDT
Civil Twilight 5:31 AM CDT 8:34 PM CDT
Nautical Twilight 4:58 AM CDT 9:07 PM CDT
Astronomical Twilight 4:21 AM CDT 9:44 PM CDT
Moon 5:11 AM CDT (6/18) 7:27 PM CDT (6/18)
Length of Visible Light 15h 02m
Length of Day
14h 07m
Waning Crescent, 1% of the Moon is Illuminated
Jun 18
Waning Crescent
Jun 19
New
Jun 26
First Quarter
Jul 3
Full
Jul 10
Last Quarter

Hourly Weather History & Observations

Time (CDT) Temp. Heat Index Dew Point Humidity Pressure Visibility Wind Dir Wind Speed Gust Speed Precip Events Conditions
12:15 AM 75.2 °F - 73.4 °F 94% 29.96 in - East 3.5 mph - N/A   Unknown
12:35 AM 75.2 °F - 73.4 °F 94% 29.96 in - SE 4.6 mph - N/A   Unknown
12:55 AM 75.2 °F - 73.4 °F 94% 29.96 in - ESE 4.6 mph - N/A   Unknown
1:15 AM 75.2 °F - 73.4 °F 94% 29.95 in - ESE 3.5 mph - N/A   Unknown
1:35 AM 75.2 °F - 73.4 °F 94% 29.95 in - ESE 3.5 mph - N/A   Unknown
1:55 AM 75.2 °F - 73.4 °F 94% 29.95 in - SE 4.6 mph - N/A   Unknown
2:15 AM 75.2 °F - 73.4 °F 94% 29.95 in - SE 3.5 mph - N/A   Unknown
2:35 AM 75.2 °F - 73.4 °F 94% 29.94 in - SE 5.8 mph - N/A   Unknown
2:55 AM 75.2 °F - 73.4 °F 94% 29.94 in - SE 3.5 mph - N/A   Unknown
3:15 AM 75.2 °F - 73.4 °F 94% 29.93 in - East 4.6 mph - N/A   Unknown
3:55 AM 73.4 °F - 71.6 °F 94% 29.93 in - SE 4.6 mph - N/A   Unknown
4:15 AM 73.4 °F - 71.6 °F 94% 29.93 in - Calm Calm - N/A   Unknown
4:35 AM 69.8 °F - 69.8 °F 100% 29.94 in - North 3.5 mph - N/A   Unknown
4:55 AM 71.6 °F - 71.6 °F 100% 29.94 in - Calm Calm - N/A   Overcast
5:15 AM 73.4 °F - 71.6 °F 94% 29.94 in - Calm Calm - N/A   Overcast
5:35 AM 73.4 °F - 71.6 °F 94% 29.94 in - ENE 3.5 mph - N/A   Unknown
5:55 AM 73.4 °F - 71.6 °F 94% 29.95 in - ENE 3.5 mph - N/A   Unknown
6:15 AM 73.4 °F - 71.6 °F 94% 29.95 in - ENE 4.6 mph - N/A   Unknown
6:55 AM 75.2 °F - 73.4 °F 94% 29.96 in - East 5.8 mph - N/A   Overcast
7:15 AM 75.2 °F - 73.4 °F 94% 29.97 in - East 4.6 mph - N/A   Overcast
7:55 AM 77.0 °F - 75.2 °F 94% 29.97 in - East 6.9 mph - N/A   Overcast
8:15 AM 78.8 °F - 75.2 °F 89% 29.98 in - East 4.6 mph - N/A   Unknown
8:35 AM 80.6 °F 86.2 °F 75.2 °F 84% 29.98 in - SE 11.5 mph - N/A   Overcast
8:55 AM 82.4 °F 88.2 °F 73.4 °F 74% 29.99 in - SE 15.0 mph 19.6 mph N/A   Overcast
9:15 AM 84.2 °F 90.9 °F 73.4 °F 70% 29.98 in - SSE 12.7 mph 17.3 mph N/A   Overcast
9:35 AM 84.2 °F 90.9 °F 73.4 °F 70% 29.98 in - SSE 12.7 mph 21.9 mph N/A Thunderstorm Thunderstorm
9:55 AM 84.2 °F 90.9 °F 73.4 °F 70% 29.99 in - SSE 17.3 mph - N/A   Scattered Clouds
10:15 AM 86.0 °F 91.8 °F 71.6 °F 62% 30.00 in - SSE 15.0 mph 18.4 mph N/A Thunderstorm Thunderstorm
10:55 AM 86.0 °F 93.4 °F 73.4 °F 66% 30.00 in - SE 16.1 mph - N/A   Overcast
11:15 AM 86.0 °F 91.8 °F 71.6 °F 62% 30.00 in - SE 13.8 mph 21.9 mph N/A   Mostly Cloudy
11:35 AM 86.0 °F 91.8 °F 71.6 °F 62% 30.00 in - SE 16.1 mph 24.2 mph N/A   Scattered Clouds
11:55 AM 87.8 °F 95.6 °F 73.4 °F 62% 30.00 in - ESE 19.6 mph - N/A   Scattered Clouds
12:15 PM 87.8 °F 93.8 °F 71.6 °F 58% 30.00 in - SE 16.1 mph - N/A   Scattered Clouds
12:35 PM 86.0 °F 91.8 °F 71.6 °F 62% 30.00 in - ESE 17.3 mph 23.0 mph N/A   Scattered Clouds
12:55 PM 87.8 °F 93.8 °F 71.6 °F 58% 30.00 in - SE 17.3 mph 21.9 mph N/A   Clear
1:15 PM 87.8 °F 93.8 °F 71.6 °F 58% 30.00 in - SE 16.1 mph 24.2 mph N/A   Clear
1:35 PM 86.0 °F 93.4 °F 73.4 °F 66% 29.99 in - ESE 18.4 mph 23.0 mph N/A   Scattered Clouds
1:55 PM 86.0 °F 91.8 °F 71.6 °F 62% 29.98 in - SE 19.6 mph 25.3 mph N/A   Scattered Clouds
2:15 PM 87.8 °F 93.8 °F 71.6 °F 58% 29.98 in - ESE 19.6 mph 25.3 mph N/A   Clear
2:35 PM 87.8 °F 93.8 °F 71.6 °F 58% 29.98 in - SE 19.6 mph 24.2 mph N/A   Scattered Clouds
2:55 PM 87.8 °F 95.6 °F 73.4 °F 62% 29.98 in - ESE 13.8 mph 24.2 mph N/A   Scattered Clouds
3:15 PM 86.0 °F 91.8 °F 71.6 °F 62% 29.97 in - SE 17.3 mph 23.0 mph N/A   Scattered Clouds
3:35 PM 86.0 °F 93.4 °F 73.4 °F 66% 29.97 in - SE 18.4 mph 24.2 mph N/A   Mostly Cloudy
3:55 PM 84.2 °F 90.9 °F 73.4 °F 70% 29.97 in - ESE 13.8 mph - N/A   Mostly Cloudy
4:15 PM 86.0 °F 93.4 °F 73.4 °F 66% 29.97 in - SE 18.4 mph 24.2 mph N/A   Mostly Cloudy
4:35 PM 86.0 °F 93.4 °F 73.4 °F 66% 29.97 in - SE 13.8 mph 24.2 mph N/A   Scattered Clouds
4:55 PM 84.2 °F 90.9 °F 73.4 °F 70% 29.97 in - ESE 13.8 mph 25.3 mph N/A   Scattered Clouds
5:15 PM 84.2 °F 90.9 °F 73.4 °F 70% 29.97 in - ESE 12.7 mph 17.3 mph N/A   Scattered Clouds
5:35 PM 84.2 °F 90.9 °F 73.4 °F 70% 29.98 in - SE 16.1 mph 24.2 mph N/A   Scattered Clouds
5:55 PM 77.0 °F - 75.2 °F 94% 29.98 in - SE 8.1 mph - 0.05 in   Unknown
6:15 PM 78.8 °F - 75.2 °F 89% 29.97 in - SE 6.9 mph - 0.05 in   Unknown
6:35 PM 80.6 °F 86.2 °F 75.2 °F 84% 29.97 in - SE 10.4 mph - 0.08 in   Scattered Clouds
6:55 PM 82.4 °F 88.2 °F 73.4 °F 74% 29.97 in - SE 9.2 mph - 0.10 in   Clear
7:15 PM 82.4 °F 88.2 °F 73.4 °F 74% 29.98 in - SE 10.4 mph - N/A   Clear
7:35 PM 80.6 °F 86.2 °F 75.2 °F 84% 29.98 in - SE 9.2 mph - N/A   Scattered Clouds
7:55 PM 80.6 °F 85.4 °F 73.4 °F 79% 29.98 in - ESE 8.1 mph - N/A   Scattered Clouds
8:15 PM 80.6 °F 85.4 °F 73.4 °F 79% 29.98 in - SE 8.1 mph - N/A   Scattered Clouds
8:35 PM 78.8 °F - 73.4 °F 83% 29.98 in - SE 9.2 mph - N/A   Scattered Clouds
8:55 PM 78.8 °F - 73.4 °F 83% 29.98 in - SE 8.1 mph - N/A   Scattered Clouds
9:15 PM 78.8 °F - 73.4 °F 83% 29.99 in - SE 6.9 mph - N/A   Clear
9:35 PM 78.8 °F - 73.4 °F 83% 29.99 in - SE 6.9 mph - N/A   Mostly Cloudy
9:55 PM 78.8 °F - 73.4 °F 83% 29.99 in - SE 6.9 mph - N/A   Scattered Clouds
10:15 PM 78.8 °F - 73.4 °F 83% 30.00 in - SE 6.9 mph - N/A   Unknown
10:55 PM 78.8 °F - 73.4 °F 83% 30.00 in - ESE 3.5 mph - N/A   Unknown
11:15 PM 77.0 °F - 73.4 °F 89% 30.01 in - Calm Calm - N/A   Unknown
11:35 PM 77.0 °F - 73.4 °F 89% 30.01 in - ENE 3.5 mph - N/A   Unknown
11:55 PM 77.0 °F - 73.4 °F 89% 30.01 in - East 4.6 mph - N/A   Unknown